Location: Clarion
(42.7316°N, 93.7330°W)
Time: 02:17:57
(UTC+00:00)

Cosmos 1821 Rocket - Pass Details

Date: 22 April 2026
Orbit: 945 x 1003 km, 82.9° (Epoch: 20 May)

Event Time Altitude Azimuth Distance (km) Brightness Sun altitude
Rises 02:06:26 0° 183° (S) 3,656 6.7 -11.3°
Reaches altitude 10° 02:08:54 10° 182° (S) 2,721 6.1 -11.7°
Maximum altitude 02:15:09 83° 96° (E) 1,002 4.0 -12.7°
Drops below altitude 10° 02:21:33 10° 9° (N) 2,774 6.7 -13.7°
Sets 02:24:06 0° 9° (N) 3,732 7.4 -14.1°
